Location: Oundoundou
(13.6667°N, 13.5500°W)
Time: 07:18:13
(UTC+00:00)

Daily predictions for brighter satellites

Satellite Brightness Start Highest point End
(mag) Time Altitude Azimuth Time Altitude Azimuth Time Altitude Azimuth
H-2A ROCKET BODY 4.3 18:30:32 10° WNW 18:36:05 47° N 19:04:23 10° ENE
FALCON 9 R/B 3.9 18:48:51 10° SSW 18:54:06 42° SE 19:11:02 10° ENE
ATLAS 5 CENTAUR R/B 4.5 18:58:33 10° WSW 19:02:40 41° NW 19:15:32 10° NNE
FENGYUN 3A 4.0 19:04:33 10° SE 19:09:31 41° ENE 19:14:29 10° N
ATLAS 3B CENTAUR R/B 2.1 19:11:25 10° NNW 19:12:28 12° N 19:13:24 10° NE
Cosmos 1300 2.8 19:09:33 10° N 19:13:16 52° E 19:16:59 10° SSE
SeaSat 1 3.8 19:08:49 10° S 19:13:29 44° WSW 19:18:11 10° NW
COSMOS 2406 3.2 19:12:09 10° S 19:17:53 74° ESE 19:23:35 10° NNE
IRS-1A Rocket 4.3 19:12:41 10° SSE 19:18:10 89° ENE 19:23:43 10° NNW
Cosmos 1315 Rocket 4.3 19:16:55 10° SSW 19:20:39 39° W 19:24:21 10° NNW
YAOGAN 1 3.0 19:18:53 10° S 19:23:10 69° WSW 19:27:27 10° NNW
USA 40 PKM 4.3 19:26:11 10° NNW 19:29:44 49° ENE 19:33:07 10° SE
CCE 1 Rocket 3.3 19:26:13 10° WNW 19:30:03 78° NNE 19:34:25 10° ESE
Atlas Centaur 2 4.4 19:26:23 10° S 19:30:20 15° SSE 19:33:55 10° ESE
GPS 2-05 Rocket1 3.8 19:36:10 10° NNW 19:38:35 22° NNE 19:39:05 21° NE
MOS 1 4.3 19:33:24 10° SSE 19:39:03 90° ESE 19:44:42 10° NNW
Cosmos 1346 Rocket 3.6 19:36:08 10° NNE 19:39:29 28° E 19:42:50 10° SE
H-2A R/B 3.2 19:36:54 10° SE 19:40:20 36° ENE 19:43:49 10° N
Cosmos 1833 Rocket 4.2 19:38:48 10° SE 19:41:55 15° ESE 19:42:18 15° E
Lacrosse 5 2.1 19:38:08 10° SSW 19:43:04 51° ESE 19:46:28 19° NE
Delta 7925 Rocket 3.9 19:38:16 10° WSW 19:45:33 84° NNW 19:49:26 22° ENE
Thor Agena Rocket 3.5 19:41:13 10° NNE 19:46:26 78° ESE 19:51:35 10° S
CZ-3C R/B 4.0 19:34:09 10° W 19:47:24 30° SW 19:50:54 10° SSE
Cosmos 2218 Rocket 4.2 19:41:20 10° N 19:47:26 72° W 19:53:33 10° S
Hubble Space Telescope 0.7 19:44:50 10° WSW 19:48:58 87° NNW 19:51:05 28° ENE
SPOT 3 Rocket 3.5 19:44:30 10° SSE 19:49:38 89° WSW 19:54:47 10° NNW
Cosmos 1151 Rocket 4.1 19:50:44 24° E 19:50:44 24° E 19:53:58 10° SE
Delta 2 Rocket 3.9 19:45:34 10° WSW 19:51:34 71° SSE 19:55:15 25° ENE
Mugunghwa Rocket 4.2 19:45:57 10° SW 19:52:06 56° SSE 19:55:54 24° E
Meteor 2-2 Rocket 4.1 19:46:42 10° N 19:52:22 83° E 19:57:59 10° S
Cosmos 332 Rocket 4.5 19:48:53 10° SSW 19:53:37 56° WNW 19:58:24 10° N
ALOS 3.5 19:53:47 10° S 19:58:11 43° W 20:02:36 10° NNW
Cosmos 304 Rocket 4.4 19:55:24 10° SSE 19:59:44 35° E 20:00:36 32° ENE
USA 81 4.1 19:56:23 10° S 20:01:39 80° W 20:06:55 10° N
SL-27 R/B 2.5 19:59:39 10° S 20:02:48 48° ESE 20:02:48 48° ESE
Delta 2 Rocket 4.5 19:57:42 10° SW 20:03:15 48° SE 20:05:21 32° E
Meteor 2-15 4.4 19:58:53 10° S 20:05:02 86° W 20:11:09 10° N
FREGAT/IRIS 2.3 20:03:44 10° SSE 20:06:40 82° E 20:06:40 82° E
Cosmos 2058 4.4 20:03:38 10° SSW 20:07:27 37° W 20:11:19 10° NNW
Cosmos 1500 Rocket 4.4 20:06:02 10° SSW 20:10:20 50° W 20:14:39 10° N
Cosmos 1455 2.6 20:12:49 43° SE 20:12:49 43° SE 20:15:38 10° SSE
Cosmos 1515 Rocket 3.5 20:10:32 34° NNE 20:12:11 57° E 20:16:25 10° SSE
Delta 198 3.7 20:08:43 10° SW 20:12:25 45° SSE 20:12:56 43° SE
Cosmos 1777 Rocket 3.8 20:15:43 10° N 20:20:56 72° ENE 20:26:11 10° SSE
CZ-3C R/B 2.9 20:18:08 10° SSW 20:21:29 30° SE 20:22:48 28° ESE
SJ-6B 4.0 20:18:11 10° SSE 20:20:18 30° SSE 20:20:18 30° SSE
Cosmos 2228 Rocket 3.1 20:19:39 10° N 20:24:14 86° W 20:28:48 10° S
CZ-4C R/B 2.1 20:25:24 10° SSW 20:30:11 64° WNW 20:31:46 41° N
Cosmos 1821 Rocket 3.8 20:26:44 10° N 20:32:54 71° E 20:39:10 10° S
Cosmos 1535 Rocket 4.4 20:33:27 57° E 20:33:27 57° E 20:39:11 10° SSE
ATLAS 2AS CENTAUR R/B 4.1 20:28:09 10° NW 20:34:47 38° WSW 20:40:52 10° S
ISS -1.5 20:36:43 10° WSW 20:38:29 25° W 20:38:29 25° W
Cosmos 1814 Rocket 3.9 20:35:51 10° S 20:41:07 86° SE 20:41:07 86° SE
Cosmos 1656 Rocket 3.8 20:36:08 10° NNW 20:41:37 72° WSW 20:47:12 10° S
GPS 2-17 Rocket1 3.5 20:38:38 10° WSW 20:42:45 62° SW 20:42:45 62° SW
ARGOS Delta rocket 4.3 20:48:25 62° NNW 20:49:08 71° W 20:54:24 10° SSW
GPS 2-15 Rocket1 3.9 20:46:59 10° WSW 20:50:33 49° WSW 20:50:33 49° WSW
Cosmos 2082 Rocket 2.3 20:47:52 10° SSW 20:52:43 66° SSW 20:52:43 66° SSW
NOSS 3-4 (A) 4.0 20:50:23 10° NNW 20:56:20 57° N 20:56:20 57° N
NOSS 3-4 (C) 4.1 20:50:30 10° NNW 20:56:14 54° N 20:56:14 54° N
Cosmos 1763 Rocket 4.2 20:55:51 10° SSW 21:00:04 51° WSW 21:00:04 51° WSW
Cosmos 1727 Rocket 4.4 21:03:02 10° S 21:07:50 55° SSW 21:07:50 55° SSW
Atlas Centaur 2 3.6 21:13:23 10° SW 21:17:49 36° SSW 21:17:49 36° SSW
Cosmos 1833 Rocket 4.1 21:20:17 10° SW 21:24:05 33° WSW 21:24:05 33° WSW
CZ-3A R/B 3.9 21:21:19 10° WSW 21:27:32 88° SSE 22:37:36 10° ENE
CZ-3A R/B 3.9 21:21:20 10° WSW 21:27:32 88° SSE 22:37:36 10° ENE
CZ-3A R/B 3.9 21:21:20 10° WSW 21:27:33 88° SSE 22:37:36 10° ENE
